Frederick, OK

2:47 AM CDT on October 24, 2017 (GMT -0500)
Frederick Municipal

Weather History for KFDR - January, 2013

Change the Weather History Date:

Saturday, January 26, 2013

  Actual Average (KLTS) Record (KLTS)
Temperature  
Mean Temperature 42 °F -  
Max Temperature 55 °F 50 °F 79 °F (2015)
Min Temperature 30 °F 27 °F 19 °F (2011)
Degree Days  
Heating Degree Days 22    
Moisture  
Dew Point 35 °F    
Average Humidity 72    
Maximum Humidity 87    
Minimum Humidity 45    
Precipitation  
Precipitation 0.00 in - - ()
Sea Level Pressure  
Sea Level Pressure 30.09 in    
Wind  
Wind Speed 8 mph (East)    
Max Wind Speed 15 mph    
Max Gust Speed -    
Visibility 10 miles    
Events      
Averages and records for this station are not official NWS values.
T = Trace of Precipitation, MM = Missing Value Source: NWS Daily Summary

Daily Weather History Graph

Daily Weather History Graph

Search for Another Location

Airport or City:

Trip Planner

Search our weather history database for the weather conditions in past years. The results will help you decide how hot, cold, wet, or windy it might be!

Date:

Astronomy

Jan. 26, 2013 Rise Set
Actual Time 7:37 AM CST 6:00 PM CST
Civil Twilight 7:10 AM CST 6:26 PM CST
Nautical Twilight 6:40 AM CST 6:57 PM CST
Astronomical Twilight 6:10 AM CST 7:26 PM CST
Moon 5:54 PM CST (1/26) 6:57 AM CST (1/26)
Length of Visible Light 11h 16m
Length of Day
10h 22m
Full, 100% of the Moon is Illuminated
Jan 26
Full
Jan 26
Full
Feb 3
Last Quarter
Feb 10
New
Feb 17
First Quarter

Hourly Weather History & Observations

Time (CST) Temp. Windchill Dew Point Humidity Pressure Visibility Wind Dir Wind Speed Gust Speed Precip Events Conditions
12:53 AM 36.0 °F 30.3 °F 28.9 °F 76% 30.18 in 10.0 mi NE 6.9 mph - N/A   Clear
1:53 AM 36.0 °F 30.3 °F 28.9 °F 76% 30.17 in 10.0 mi NE 6.9 mph - N/A   Clear
2:53 AM 35.1 °F 29.3 °F 28.9 °F 78% 30.17 in 10.0 mi NE 6.9 mph - N/A   Clear
3:53 AM 33.1 °F 26.1 °F 28.0 °F 82% 30.16 in 10.0 mi NE 8.1 mph - N/A   Clear
4:53 AM 32.0 °F 26.4 °F 27.0 °F 82% 30.16 in 9.0 mi North 5.8 mph - N/A   Clear
5:53 AM 32.0 °F 27.5 °F 28.0 °F 85% 30.15 in 10.0 mi NNE 4.6 mph - N/A   Clear
6:53 AM 33.1 °F 26.1 °F 28.0 °F 82% 30.16 in 10.0 mi NNE 8.1 mph - N/A   Clear
7:53 AM 30.9 °F 24.3 °F 27.0 °F 85% 30.17 in 9.0 mi NE 6.9 mph - N/A   Clear
8:53 AM 37.0 °F 33.3 °F 30.0 °F 76% 30.19 in 10.0 mi NE 4.6 mph - N/A   Clear
9:53 AM 41.0 °F 38.0 °F 32.0 °F 70% 30.19 in 10.0 mi SE 4.6 mph - N/A   Clear
10:53 AM 45.0 °F 42.6 °F 34.0 °F 65% 30.19 in 10.0 mi South 4.6 mph - N/A   Clear
11:53 AM 48.9 °F - 34.0 °F 56% 30.15 in 10.0 mi Calm Calm - N/A   Clear
12:53 PM 51.1 °F - 35.1 °F 54% 30.12 in 10.0 mi ESE 4.6 mph - N/A   Clear
1:53 PM 54.0 °F - 35.1 °F 49% 30.07 in 10.0 mi ESE 5.8 mph - N/A   Clear
2:53 PM 55.9 °F - 35.1 °F 45% 30.06 in 10.0 mi SSE 10.4 mph - N/A   Clear
3:53 PM 55.9 °F - 35.1 °F 45% 30.05 in 10.0 mi SE 10.4 mph - N/A   Clear
4:53 PM 55.9 °F - 36.0 °F 47% 30.04 in 10.0 mi SE 13.8 mph - N/A   Clear
5:53 PM 53.1 °F - 36.0 °F 52% 30.03 in 10.0 mi ESE 11.5 mph - N/A   Clear
6:53 PM 51.1 °F - 36.0 °F 56% 30.04 in 10.0 mi ESE 10.4 mph - N/A   Clear
8:53 PM 46.9 °F - 42.1 °F 83% 30.02 in 10.0 mi East 15.0 mph - N/A   Clear
9:53 PM 46.9 °F - 43.0 °F 86% 30.03 in 10.0 mi ESE 10.4 mph - N/A   Clear
10:37 PM 46.4 °F 42.4 °F 42.8 °F 87% 30.02 in 10.0 mi East 8.1 mph - N/A   Mostly Cloudy
10:53 PM 46.9 °F - 43.0 °F 86% 30.01 in 10.0 mi East 10.4 mph - N/A   Mostly Cloudy
11:03 PM 46.4 °F 41.1 °F 42.8 °F 87% 30.01 in 10.0 mi East 11.5 mph - N/A   Scattered Clouds
11:16 PM 48.2 °F - 42.8 °F 82% 30.01 in 10.0 mi East 10.4 mph - N/A   Mostly Cloudy
11:25 PM 48.2 °F - 42.8 °F 82% 30.00 in 10.0 mi East 10.4 mph - N/A   Mostly Cloudy
11:53 PM 48.0 °F - 44.1 °F 86% 30.00 in 9.0 mi East 10.4 mph - N/A   Overcast